Notices

What's New in latest Release from April 7th, 2021:

- Updated Glossary, including Speed of Maximum Gust, and Total Hourly Precipitation

- Updated national and regional climate services offices contacts and prices information

- Addition of station inventory lists for 1981-2010, 1971-2000, and 1961-1990 Normals.

If you haven't already, please take our survey and provide feedback about our website: https://eccc.sondage-survey.ca/f/LanguageSelection.aspx?s=442ca660-fcf1-47c0-95a9-59707d6fd709

Hourly Data Report for October 19, 2019

PINAWA
MANITOBA
Current Station Operator: ECCC - MSC

50°10'38.020" N
96°03'53.000" W
268.00 m
503B1ER
71448
WEA

Download Data

Hourly Data (October 2019)
Hourly Data Report for October 19, 2019
TIME
LST
Temp Definition
°C
Dew Point Definition
°C
Rel Hum Definition
%
Precip. Amount Definition
mm

Wind Dir Definition
10's deg

Wind Spd Definition
km/h
Visibility Definition
km
Stn Press Definition
kPa
Hmdx Definition


Wind Chill Definition


Weather Definition


00:00 8.4 LegendMM LegendMM LegendMM 20 4   96.30     LegendNANA
01:00 8.3 LegendMM LegendMM LegendMM 24 4   96.31     LegendNANA
02:00 7.9 LegendMM LegendMM LegendMM 20 5   96.34     LegendNANA
03:00 6.6 LegendMM LegendMM LegendMM 19 3   96.38     LegendNANA
04:00 5.9 LegendMM LegendMM LegendMM 18 4   96.45     LegendNANA
05:00 5.0 LegendMM LegendMM LegendMM 19 3   96.46     LegendNANA
06:00 4.4 LegendMM LegendMM LegendMM 23 4   96.52     LegendNANA
07:00 3.9 LegendMM LegendMM LegendMM 23 6   96.56     LegendNANA
08:00 4.4 LegendMM LegendMM LegendMM 25 6   96.60     LegendNANA
09:00 5.3 LegendMM LegendMM LegendMM 28 8   96.61     LegendNANA
10:00 6.5 LegendMM LegendMM LegendMM 27 8   96.70     LegendNANA
11:00 7.2 LegendMM LegendMM LegendMM 25 5   96.73     LegendNANA
12:00 7.2 LegendMM LegendMM LegendMM 28 8   96.78     LegendNANA
13:00 7.1 LegendMM LegendMM LegendMM 30 11   96.80     LegendNANA
14:00 8.2 LegendMM LegendMM LegendMM 28 5   96.81     LegendNANA
15:00 8.7 LegendMM LegendMM LegendMM 30 8   96.86     LegendNANA
16:00 8.7 LegendMM LegendMM LegendMM 22 3   96.92     LegendNANA
17:00 8.4 LegendMM LegendMM LegendMM 16 2   96.97     LegendNANA
18:00 7.6 LegendMM LegendMM LegendMM 16 5   96.99     LegendNANA
19:00 7.3 LegendMM LegendMM LegendMM 17 5   97.02     LegendNANA
20:00 6.9 LegendMM LegendMM LegendMM 17 3   97.06     LegendNANA
21:00 6.7 LegendMM LegendMM LegendMM 17 4   97.09     LegendNANA
22:00 6.2 LegendMM LegendMM LegendMM 17 6   97.08     LegendNANA
23:00 5.3 LegendMM LegendMM LegendMM 15 5   97.08     LegendNANA

Notes on Data Quality.

Legend

  • E = Estimated
  • M = Missing
  • NA = Not Available*
  • [empty] = Indicates an unobserved value
Date modified: